CAPE
0 0 0 1 0 5 3 1 0 0 0 0 0 1 1 1 1 0 0 0 0 0 0 0 0 0 0 0 0 0 0 0 0 0 0 0 0 0 0 1 66 403 570 1661 1130
0 0 0 0 0 1 3 1 0 0 0 1 1 1 0 0 0 0 0 0 0 0 0 0 0 0 0 0 0 0 0 0 0 0 0 0 0 0 0 4 23 290 957 1238 1200
1 1 0 1 1 0 3 3 1 1 1 1 1 1 0 0 0 0 0 0 0 0 0 0 0 0 0 0 0 0 0 0 0 0 0 0 0 0 0 0 2 2 612 866 1262
2 1 2 2 0 0 0 1 2 1 1 1 1 0 1 0 0 0 0 0 0 0 0 0 0 0 0 0 0 0 0 0 0 0 0 0 0 0 0 0 0 0 0 863 918
1 1 1 0 1 0 0 1 2 2 2 1 1 0 0 0 0 0 0 0 0 0 0 0 0 0 0 0 0 0 0 0 0 0 0 0 0 0 0 0 0 0 0 0 406
2 0 0 1 1 1 2 2 3 1 1 1 1 0 0 0 0 0 0 0 0 0 0 0 0 0 0 0 0 0 0 0 0 0 0 0 0 0 0 0 0 0 0 0 0
6 2 0 0 1 2 2 1 0 0 1 1 0 0 0 0 0 0 0 0 0 0 0 0 0 0 0 0 0 0 0 0 0 0 0 0 0 0 0 0 26 0 0 180 139
5 1 1 0 2 2 1 1 0 0 1 1 0 0 0 0 0 0 0 0 0 0 0 0 0 0 0 0 0 0 0 0 0 0 0 0 0 3 0 0 129 123 44 583 1458
6 2 1 2 3 1 1 0 0 0 1 1 0 0 0 0 0 0 0 0 0 0 0 0 0 0 0 0 0 0 0 0 0 0 0 0 0 11 0 17 178 225 1073 1100 1084
3 6 5 2 2 0 0 0 0 0 0 0 0 0 0 0 0 0 0 0 0 0 0 0 0 0 0 0 0 3 0 0 0 0 0 0 2 11 0 78 228 364 666 542 589
0 0 1 4 2 0 0 0 0 0 0 0 0 0 0 0 0 0 0 0 0 0 0 0 0 0 0 0 0 0 0 0 0 10 0 1 34 25 0 15 144 385 262 162 150
0 1 0 1 3 0 0 0 0 0 0 0 0 0 0 0 0 0 0 0 0 0 0 0 0 0 0 0 0 0 0 0 2 11 0 0 41 53 0 13 42 55 13 5 1
0 0 0 0 4 0 0 0 0 0 0 11 0 0 0 0 0 0 0 0 0 0 12 2 0 0 0 0 0 0 0 0 0 0 3 0 0 41 32 17 30 0 0 0 0
1 0 0 1 0 0 0 0 0 0 15 11 0 0 0 0 1 0 0 0 1 2 25 3 0 0 0 0 0 0 0 0 0 0 0 0 0 405 37 0 0 0 0 0 0
3 4 0 0 0 0 0 0 0 0 208 23 0 1 0 2 22 0 0 0 0 40 23 8 8 0 0 0 0 0 0 0 0 0 0 0 0 504 70 12 1 0 0 0 0
2 2 0 0 0 0 0 0 0 75 190 0 0 0 0 13 17 10 0 0 5 9 36 6 3 0 0 0 0 0 0 0 0 0 0 0 0 338 353 94 5 0 0 0 0
3 3 0 0 0 0 0 0 2 97 106 78 7 0 1 15 36 19 10 17 0 0 0 0 1 0 0 0 0 0 0 0 0 0 0 6 0 476 392 52 5 2 0 0 0
0 0 0 0 0 0 0 0 21 88 76 4 10 13 0 24 17 30 15 37 34 49 39 2 45 39 0 0 0 0 0 0 0 0 0 10 144 546 586 369 189 18 0 0 0
0 0 0 0 0 0 0 0 12 146 72 15 0 2 2 2 0 9 4 10 23 1 6 0 0 0 0 0 0 0 0 0 0 0 0 0 311 497 348 248 113 30 0 0 0
0 0 0 0 0 0 0 0 2 64 55 18 83 8 3 23 4 0 0 0 0 0 0 0 0 0 0 0 0 0 0 0 0 0 0 0 5 723 405 211 27 0 0 0 0
0 73 48 0 0 0 29 0 0 66 128 6 26 2 10 21 10 9 0 0 0 0 0 0 0 0 0 0 0 0 0 0 0 0 0 0 79 734 443 182 94 43 0 0 0
0 133 160 3 0 0 0 0 8 8 5 0 0 0 0 0 28 4 0 0 0 0 0 0 0 0 0 0 0 0 0 0 1 3 41 74 17 267 352 226 234 76 0 0 0
0 0 59 96 43 0 2 44 105 177 105 2 0 0 0 0 1 1 6 0 0 0 0 0 0 0 0 0 4 0 0 0 2 120 14 34 11 121 31 28 7 0 0 0 0
4 0 79 2 1 17 50 23 160 32 5 65 32 20 8 5 6 2 16 3 0 0 37 0 0 0 0 9 5 19 54 2 15 49 14 0 20 216 22 3 0 0 0 0 0
2 0 0 0 0 0 0 0 0 0 0 70 8 2 27 34 43 57 34 6 0 0 0 0 0 0 0 0 1 9 0 24 37 8 79 0 21 134 188 198 13 2 7 1 1
0 0 0 0 1 0 0 0 0 0 48 58 2 0 24 38 45 72 93 70 81 1 0 85 0 0 0 0 0 0 4 17 33 0 4 1 16 32 37 29 43 17 13 0 0
0 0 0 0 3 61 24 0 1 0 0 0 36 15 62 41 55 36 120 48 106 141 267 259 190 157 28 64 82 89 46 51 72 37 27 38 24 50 68 84 147 18 2 0 0
CIN
0 0 0 0 0 0 0 0 0 0 0 0 0 0 0 0 0 0 0 0 0 0 0 0 0 0 0 0 0 0 0 0 0 0 0 0 0 0 0 -1 -30 -7 -9 -7 -62
0 0 0 0 0 0 0 0 0 0 0 0 0 0 0 0 0 0 0 0 0 0 0 0 0 0 0 0 0 0 0 0 0 0 0 0 0 0 0 -26 -43 -13 -17 -22 -39
0 0 0 0 0 0 0 0 0 0 0 0 0 0 0 0 0 0 0 0 0 0 0 0 0 0 0 0 0 0 0 0 0 0 0 0 0 0 0 0 -18 -6 -14 -32 -29
0 0 0 0 0 0 0 0 0 0 0 0 0 0 0 0 0 0 0 0 0 0 0 0 0 0 0 0 0 0 0 0 0 0 0 0 0 0 0 0 0 0 0 -16 -8
0 0 0 0 0 0 0 0 0 0 0 0 0 0 0 0 0 0 0 0 0 0 0 0 0 0 0 0 0 0 0 0 0 0 0 0 0 0 0 0 0 0 0 0 -61
0 0 0 0 0 0 0 0 0 0 0 0 0 0 0 0 0 0 0 0 0 0 0 0 0 0 0 0 0 0 0 0 0 0 0 0 0 0 0 0 0 0 0 0 0
0 0 0 0 0 0 0 0 -1 0 0 0 0 0 0 0 0 0 0 0 0 0 0 0 0 0 0 0 0 0 0 0 0 0 0 0 0 0 0 0 -146 0 0 -47 -95
0 0 0 0 0 0 0 0 0 0 0 0 0 0 0 0 0 0 0 0 0 0 0 0 0 0 0 0 0 0 0 0 0 0 0 0 0 -2 0 0 -64 -78 -109 -9 -25
0 0 0 0 0 0 0 0 0 0 0 0 0 0 0 0 0 0 0 0 0 0 0 0 0 0 0 0 0 0 0 0 0 0 0 0 0 -24 0 -35 -6 -33 -21 -19 -91
0 0 0 0 0 0 0 0 0 0 0 0 0 0 0 0 0 0 0 0 0 0 0 0 0 0 0 0 0 -9 0 0 0 0 0 0 -2 -21 0 -45 -19 -12 -46 -77 -137
0 0 0 0 0 0 0 0 0 0 0 0 0 0 0 0 0 0 0 0 0 0 0 0 0 0 0 0 0 0 -6 0 0 -14 0 -1 -6 -13 0 -53 -47 -23 -105 -176 -202
0 0 0 0 0 0 0 0 0 0 0 0 0 0 0 0 0 0 0 0 0 0 0 0 0 0 0 0 0 0 0 0 -2 -11 0 0 -1 -23 0 -33 -70 -130 -226 -229 -273
0 0 0 0 0 0 0 0 0 0 0 -27 0 0 0 0 0 0 0 0 0 0 0 -1 0 0 0 0 0 0 0 0 0 -3 -2 0 0 -2 -47 -116 -110 0 0 0 0
0 0 0 0 0 0 0 0 0 0 -40 -7 0 0 0 0 -1 0 0 0 0 0 -2 -3 0 0 0 0 0 0 0 0 0 0 0 0 0 -14 -36 0 0 0 0 0 0
0 0 0 0 0 0 0 0 0 -1 0 -27 0 0 0 0 -3 0 0 0 -1 -1 -14 -31 -13 0 0 0 0 0 0 0 0 0 0 0 0 -9 -75 -58 -19 0 0 0 0
0 0 0 0 0 0 0 0 0 -16 -2 -1 0 0 0 -2 -2 -3 0 0 -2 -5 -2 -8 -2 0 0 0 0 0 0 0 0 0 0 0 0 -23 -127 -107 -6 0 0 0 0
0 0 0 0 0 0 0 0 -5 -11 -6 -5 -4 0 0 0 -1 -2 -1 -1 0 -1 0 0 -1 0 0 0 0 0 0 0 0 0 0 -2 0 -37 -117 -187 -143 -30 0 0 0
0 0 0 0 0 0 0 0 -67 -21 -2 -22 -142 -1 0 -1 -1 -1 0 0 -3 -1 0 -3 -2 -3 0 0 0 0 0 0 0 0 0 -18 -5 -39 -41 -115 -122 -174 0 0 0
0 0 0 0 0 0 0 0 -88 -14 -89 -134 0 -1 0 -1 0 -1 0 0 -1 -3 0 0 0 0 0 0 0 0 0 0 0 0 0 0 -30 -41 -98 -139 -168 -211 0 0 0
0 0 0 0 0 0 0 0 -6 -2 -21 -82 -4 -1 0 -1 -8 0 0 0 0 0 0 0 0 0 0 0 0 0 0 0 0 0 0 0 -2 -28 -43 -97 -122 0 0 0 0
0 -44 -49 0 0 0 -36 0 0 -5 -4 -45 -8 -2 -1 0 -2 -3 0 0 0 0 0 0 0 0 0 0 0 0 0 0 0 0 0 0 -10 -15 -40 -52 -63 -74 0 0 0
0 -19 -28 -2 0 0 0 0 -5 -15 -44 0 0 0 0 0 -2 -2 0 0 0 0 0 0 0 0 0 0 0 0 0 0 0 0 -1 -1 -1 -18 -5 -8 -18 -67 0 0 0
0 0 -23 -18 -7 0 0 0 -1 -9 -2 -5 0 0 0 0 -1 -2 -2 -4 0 0 0 0 0 0 0 0 -11 -1 0 0 -17 -3 -27 -20 -11 -56 -82 -67 -80 0 0 0 0
-13 0 -6 0 -1 -6 -2 -5 -5 -66 -28 -72 -2 -1 -1 -1 -1 0 -1 -4 0 0 -127 0 0 0 0 -7 -26 -11 -6 -9 -16 -8 -29 0 -6 -35 -55 -29 0 0 0 0 0
-23 0 0 0 0 0 0 0 0 0 0 -10 -1 -3 0 -1 0 -1 -1 -12 0 0 0 0 0 0 0 0 -5 -33 -2 -2 -1 -2 0 0 0 -1 -1 -1 -28 -9 -1 -3 -7
0 0 0 0 -10 0 0 0 0 0 -1 -1 -7 0 -1 0 -1 -4 -1 -5 -1 -3 0 -9 0 0 0 -1 0 0 -36 -11 -1 0 -1 0 -1 -1 -3 -12 -6 -7 -6 0 0
0 0 0 0 -8 -2 -2 0 -1 0 0 0 -14 -13 -6 -2 -5 -34 -1 -2 -2 -12 -1 -2 -3 0 -8 0 -1 -1 -1 -1 -2 -5 -2 0 -3 -1 -2 -2 -4 -14 -13 0 0
Wind_Speed
15 15 14 13 13 12 12 11 11 11 12 12 12 13 12 13 14 12 14 13 12 12 6 7 15 18 16 15 18 17 14 15 19 19 15 15 2 9 6 6 8 10 13 20 16
16 15 14 13 13 13 12 11 11 11 12 12 12 12 11 11 14 22 19 10 14 12 10 13 16 16 12 18 16 17 14 19 21 18 10 11 3 4 4 9 7 11 13 17 17
16 15 14 14 14 13 13 12 11 12 12 12 12 12 10 12 12 4 14 15 14 14 17 13 14 13 15 14 18 18 15 18 20 11 8 12 12 6 7 5 7 4 14 13 17
16 16 14 13 14 13 13 13 12 12 12 11 12 11 9 7 6 7 12 11 10 13 14 15 15 15 15 17 17 16 20 19 19 14 2 9 13 12 5 7 1 3 3 16 16
16 15 14 14 13 12 13 13 12 12 12 11 10 10 8 10 14 12 11 9 10 12 15 19 18 16 15 17 17 17 15 16 14 10 12 10 11 11 10 10 8 4 3 7 14
15 15 14 14 13 13 13 12 11 12 11 11 9 8 6 12 12 14 13 13 13 15 15 13 12 14 16 14 13 12 14 12 19 12 11 10 10 7 5 8 2 3 10 15 8
14 15 14 14 13 13 13 11 11 12 11 10 7 6 10 19 11 14 13 14 18 19 15 15 14 10 10 12 15 12 8 11 14 11 8 9 10 12 12 9 5 7 4 12 8
15 16 15 14 13 13 13 12 12 13 12 9 5 9 10 17 12 13 14 14 11 12 9 9 9 12 15 14 3 11 13 15 18 18 12 7 13 11 7 4 10 4 4 13 21
16 16 15 15 14 13 12 11 14 13 10 7 7 9 10 6 12 13 14 11 10 7 8 2 8 13 14 13 12 14 13 18 5 12 10 10 8 9 3 5 9 6 17 16 14
18 16 15 15 14 12 11 10 7 5 7 10 11 8 11 14 14 13 14 13 10 10 10 9 9 12 14 13 11 9 16 15 11 12 6 10 10 9 7 9 8 7 15 10 8
20 18 17 15 14 11 12 6 7 7 13 14 15 15 16 11 10 14 14 13 13 11 13 14 13 16 12 2 9 13 9 10 9 12 1 11 15 14 8 11 11 9 11 9 7
21 19 18 16 14 10 8 8 9 9 9 23 23 22 5 12 11 16 16 12 12 15 17 12 16 5 5 7 8 11 10 10 6 11 6 10 8 16 12 11 13 12 10 9 8
22 20 19 16 13 7 13 18 16 11 10 16 22 16 13 12 15 17 16 17 14 17 13 13 9 11 3 7 5 8 10 13 15 5 8 9 13 13 13 11 12 13 11 10 8
23 21 17 14 5 10 16 21 15 6 7 12 19 18 16 17 15 20 19 18 10 16 12 8 9 2 2 6 6 8 10 13 12 12 11 12 13 22 21 15 12 14 13 12 11
22 20 16 8 13 9 11 3 8 3 5 13 18 11 11 18 11 9 11 17 16 12 6 6 6 5 6 4 7 8 12 10 13 14 15 18 13 11 15 17 16 13 13 12 12
24 20 15 8 7 18 18 9 5 7 7 12 14 12 14 15 13 12 12 10 16 9 15 9 4 0 5 5 6 8 10 15 15 13 13 18 16 18 21 20 17 16 14 15 17
24 17 9 9 11 9 10 6 9 14 9 7 15 17 17 17 11 10 14 16 13 10 12 13 13 10 1 10 11 8 10 10 12 12 14 19 19 12 24 23 20 17 15 11 14
29 17 13 10 12 14 7 9 16 16 20 6 20 14 16 13 10 12 13 14 19 17 11 11 13 20 11 10 5 11 8 8 16 14 14 6 2 9 21 24 23 15 14 13 10
33 5 6 8 15 9 7 12 15 18 9 14 17 9 11 10 3 8 10 15 15 9 10 9 6 13 7 1 2 5 9 10 8 15 15 15 10 15 16 16 16 15 13 11 10
8 9 11 9 11 8 9 16 21 12 6 9 25 11 12 14 14 11 15 10 17 5 3 7 10 9 10 2 7 8 12 8 8 10 15 14 17 12 16 15 13 11 10 10 10
7 7 6 7 6 8 11 16 20 20 16 9 17 12 13 10 11 7 9 3 1 5 1 8 7 14 6 7 11 8 11 10 11 9 11 13 2 16 15 14 13 10 10 10 8
7 6 7 6 7 9 13 20 20 16 1 5 7 11 13 14 10 11 7 15 8 5 5 4 3 11 15 15 10 6 10 14 9 10 11 12 9 9 10 11 9 8 9 8 6
9 12 7 6 9 11 16 19 18 19 16 7 5 10 9 14 10 8 9 5 8 1 2 3 5 9 14 12 12 4 9 13 12 8 13 12 11 8 6 7 8 7 11 11 9
7 9 2 3 8 13 12 12 16 9 11 27 8 9 12 10 8 8 9 3 6 3 8 3 6 9 12 16 4 12 15 13 9 9 13 15 18 13 10 11 12 10 10 8 10
6 8 11 7 13 13 11 13 15 13 15 27 9 10 11 8 13 13 11 12 11 13 7 4 10 14 16 18 20 19 19 15 15 15 16 17 19 18 10 11 9 10 12 14 12
7 7 11 14 15 10 10 12 13 13 10 4 4 10 10 10 13 13 12 7 13 14 12 10 10 12 17 17 18 21 20 21 19 19 21 22 19 17 15 16 14 9 8 10 9
9 12 7 10 15 12 3 9 12 14 12 9 12 13 10 11 9 6 15 7 9 11 13 11 11 13 17 19 19 17 16 20 21 16 16 20 19 18 16 12 10 10 9 9 7
Wind_Direction
319 316 311 307 301 298 294 293 294 295 296 299 300 297 301 307 301 251 255 257 191 175 170 211 215 226 209 226 219 225 247 247 253 260 263 268 206 147 184 225 171 153 99 122 135
322 317 313 307 299 296 294 292 295 295 293 293 297 295 308 319 285 265 246 144 139 166 205 200 203 212 210 222 208 225 227 248 254 261 318 353 344 137 184 163 262 124 120 137 150
324 318 316 310 300 298 299 303 299 293 294 299 299 305 314 313 278 267 120 148 169 186 223 202 209 204 224 211 221 216 247 246 246 359 354 336 327 332 177 186 253 228 146 158 155
324 319 317 309 300 299 295 294 293 294 296 297 301 307 312 271 304 101 154 161 160 204 229 229 213 207 225 223 223 218 232 246 270 301 287 268 276 282 283 276 200 192 27 148 169
325 320 314 306 301 295 289 286 286 290 291 290 300 310 290 237 248 136 150 148 181 201 227 230 216 210 219 226 219 225 244 246 272 257 275 260 258 250 237 74 56 0 328 258 166
326 322 313 306 301 292 287 284 282 280 279 284 291 306 248 259 101 143 155 164 188 205 237 235 223 214 235 259 248 232 238 248 252 235 225 236 253 230 144 88 76 215 240 225 205
323 323 315 307 301 292 285 275 269 265 265 268 281 270 261 245 142 169 155 187 183 209 205 222 241 244 244 264 253 270 254 261 248 233 234 209 250 224 109 98 72 254 114 60 91
324 323 318 310 299 292 287 280 271 269 264 258 256 241 260 209 241 169 192 209 176 234 276 202 245 269 252 282 254 250 238 249 229 209 212 217 245 105 99 123 116 347 141 97 53
327 323 319 310 305 296 287 282 281 273 249 216 214 227 260 125 215 186 204 190 186 207 223 326 240 232 233 238 247 215 235 221 142 144 227 182 215 107 145 110 105 128 58 68 69
329 325 320 314 307 297 288 273 312 203 209 195 266 240 250 209 192 201 200 223 184 199 211 205 221 225 230 229 235 272 218 222 167 150 236 191 145 137 133 134 124 123 88 71 49
332 328 323 317 310 301 299 209 199 192 226 223 173 223 157 190 161 184 196 228 203 199 224 192 225 221 210 221 358 322 357 354 153 121 44 278 158 142 143 133 138 124 81 76 84
333 329 323 317 312 301 272 249 338 322 277 219 256 220 226 145 179 175 183 209 213 219 215 200 229 99 38 356 332 318 312 294 284 132 179 272 214 145 162 142 139 127 125 117 100
333 328 321 316 315 266 234 256 300 304 277 245 219 223 196 197 184 173 186 220 212 225 219 255 40 77 329 312 293 289 299 320 318 300 163 252 269 145 141 120 104 97 104 100 94
332 327 323 318 283 255 230 232 243 8 270 201 200 211 173 207 199 173 190 227 220 252 231 242 75 200 233 276 294 282 325 328 309 308 276 255 249 176 143 143 152 154 143 130 107
330 324 315 290 323 281 311 290 7 278 280 289 186 157 181 218 152 187 200 227 260 247 223 19 151 165 233 309 40 302 304 307 286 273 271 261 259 125 135 164 163 148 134 128 101
327 321 316 218 221 252 283 295 253 237 196 249 161 188 203 222 174 170 209 230 275 285 263 268 56 311 277 352 304 298 287 264 252 247 249 246 248 176 177 176 143 153 150 146 130
319 309 270 299 245 261 241 253 241 237 166 237 193 196 198 199 211 178 194 204 237 229 243 245 212 204 126 269 246 209 261 268 254 227 239 241 225 121 129 126 142 188 152 136 122
317 307 212 241 261 279 268 246 245 237 229 128 277 177 209 221 190 205 237 243 215 239 278 275 229 215 143 244 340 306 296 298 305 301 312 14 156 134 130 163 171 151 136 124 110
312 186 229 230 227 261 257 234 231 255 62 324 294 211 208 229 302 252 225 260 271 9 232 272 298 69 129 148 240 330 237 293 300 284 285 286 115 121 133 142 151 151 141 125 126
307 281 241 196 175 216 239 255 261 287 300 209 243 195 227 233 190 217 257 237 243 63 81 295 291 194 160 215 248 247 289 293 234 262 264 266 273 136 157 164 169 147 143 127 135
269 253 113 159 163 229 240 248 251 265 173 191 283 292 293 293 274 260 248 198 80 105 311 283 250 265 178 206 269 196 230 228 255 285 300 299 25 139 167 170 164 170 137 145 156
301 288 125 179 219 235 244 248 264 287 267 254 273 294 301 303 283 263 273 290 128 135 202 309 290 262 255 243 238 284 316 309 291 268 249 272 287 84 130 123 118 160 147 158 146
298 295 139 218 242 237 249 267 294 354 296 252 226 268 267 269 278 274 284 64 102 181 234 147 227 257 256 257 202 235 287 270 272 292 272 282 283 119 110 132 159 193 160 158 162
280 313 128 260 256 290 314 316 309 5 343 319 282 246 264 255 267 261 263 245 130 194 65 30 283 277 279 295 311 238 231 247 232 258 270 264 274 167 176 192 190 191 191 186 168
295 345 14 309 333 331 304 297 295 296 253 226 254 249 258 240 249 253 223 257 174 140 174 194 256 269 272 279 289 288 283 273 257 259 244 261 271 290 254 216 209 219 202 190 183
3 336 336 299 295 304 286 274 279 282 301 294 284 290 296 259 263 257 250 222 287 177 197 197 234 265 280 285 283 279 278 278 264 259 271 281 262 255 258 268 265 251 183 188 201
347 335 287 294 281 264 9 347 345 338 325 304 287 290 282 292 346 287 305 282 209 232 200 196 244 242 254 268 277 272 275 274 272 272 259 256 264 257 262 258 240 220 224 194 197